Weather History for Carmi, IL

Change the Weather History Date:

Saturday, April 5, 2014

  Actual Average (KEVV) Record (KEVV)
Temperature  
Mean Temperature 44 °F 53 °F  
Max Temperature 53 °F 64 °F 87 °F (1988)
Min Temperature 37 °F 41 °F 24 °F (1944)
Degree Days  
Heating Degree Days 20 13  
Month to date heating degree days 67  
Since 1 July heating degree days 4233  
Cooling Degree Days 0 0  
Month to date cooling degree days 0  
Year to date cooling degree days 3  
Moisture  
Dew Point 36 °F    
Average Humidity 72    
Maximum Humidity 95    
Minimum Humidity 51    
Precipitation  
Precipitation 0.00 in 0.13 in 1.41 in (1939)
Month to date precipitation 0.66  
Year to date precipitation 11.17  
Snow  
Snow 0.00 in 0.00 in T in (1996)
Month to date snowfall 0.0  
Since 1 July snowfall 11.7  
Snow Depth -    
Sea Level Pressure  
Sea Level Pressure 30.18 in    
Wind  
Wind Speed 7 mph (NNW)    
Max Wind Speed 14 mph    
Max Gust Speed 17 mph    
Visibility 10 miles    
Events      
T = Trace of Precipitation, MM = Missing Value Source: NWS Daily Summary

Daily Weather History Graph

Daily Weather History Graph

Search for Another Location

Airport:

Trip Planner

Search our weather history database for the weather conditions in past years. The results will help you decide how hot, cold, wet, or windy it might be!

Date:

Astronomy

Apr. 05, 2014 Rise Set
Actual Time 6:31 AM CDT 7:19 PM CDT
Civil Twilight 6:04 AM CDT 7:46 PM CDT
Nautical Twilight 5:33 AM CDT 8:17 PM CDT
Astronomical Twilight 5:00 AM CDT 8:50 PM CDT
Moon 10:42 AM CDT (4/5) 12:25 AM CDT (4/5)
Length of Visible Light 13h 41m
Length of Day
12h 47m
Waxing Crescent, 34% of the Moon is Illuminated
Apr 5
Waxing Crescent
Apr 7
First Quarter
Apr 15
Full
Apr 22
Last Quarter
Apr 29
New

Hourly Weather History & Observations

Time (CDT) Temp. Windchill Dew Point Humidity Pressure Visibility Wind Dir Wind Speed Gust Speed Precip Events Conditions
12:15 AM 45.0 °F 38.5 °F 36.7 °F 73% 30.13 in 10.0 mi NW 13.8 mph - N/A   Overcast
12:35 AM 44.8 °F 38.3 °F 35.8 °F 71% 30.12 in 10.0 mi NW 13.8 mph 17.3 mph N/A   Overcast
12:55 AM 44.6 °F 39.2 °F 35.2 °F 70% 30.13 in 10.0 mi NW 10.4 mph - N/A   Overcast
1:15 AM 44.1 °F 39.0 °F 34.7 °F 70% 30.13 in 10.0 mi WNW 9.2 mph - N/A   Overcast
1:35 AM 43.7 °F 39.7 °F 34.2 °F 69% 30.14 in 10.0 mi WNW 6.9 mph - N/A   Overcast
1:55 AM 42.8 °F 38.0 °F 33.6 °F 70% 30.14 in 10.0 mi NW 8.1 mph - N/A   Mostly Cloudy
2:15 AM 41.9 °F 37.5 °F 33.4 °F 72% 30.14 in 10.0 mi NW 6.9 mph - N/A   Clear
2:35 AM 41.4 °F 36.2 °F 33.8 °F 74% 30.14 in 10.0 mi NW 8.1 mph - N/A   Clear
2:55 AM 41.4 °F 36.8 °F 33.8 °F 74% 30.14 in 10.0 mi NW 6.9 mph - N/A   Scattered Clouds
3:15 AM 42.1 °F 38.4 °F 34.0 °F 73% 30.15 in 10.0 mi NW 5.8 mph - N/A   Overcast
3:35 AM 41.4 °F 38.4 °F 34.7 °F 77% 30.15 in 10.0 mi WNW 4.6 mph - N/A   Overcast
3:55 AM 40.3 °F 36.3 °F 33.8 °F 78% 30.15 in 10.0 mi NW 5.8 mph - N/A   Mostly Cloudy
4:15 AM 40.5 °F 37.3 °F 34.7 °F 80% 30.15 in 10.0 mi NW 4.6 mph - N/A   Mostly Cloudy
4:35 AM 40.8 °F 36.9 °F 34.7 °F 79% 30.15 in 10.0 mi NW 5.8 mph - N/A   Overcast
4:55 AM 41.2 °F 36.6 °F 34.7 °F 78% 30.15 in 10.0 mi NW 6.9 mph - N/A   Overcast
5:15 AM 40.3 °F 35.5 °F 33.6 °F 77% 30.16 in 10.0 mi NW 6.9 mph - N/A   Scattered Clouds
5:35 AM 39.0 °F 34.8 °F 33.8 °F 82% 30.16 in 10.0 mi NW 5.8 mph - N/A   Clear
5:55 AM 37.4 °F 32.8 °F 32.9 °F 84% 30.17 in 10.0 mi WNW 5.8 mph - N/A   Clear
6:15 AM 37.6 °F 33.1 °F 33.3 °F 84% 30.17 in 10.0 mi NW 5.8 mph - N/A   Clear
6:35 AM 37.6 °F 32.3 °F 33.1 °F 84% 30.18 in 10.0 mi NW 6.9 mph - N/A   Clear
6:55 AM 37.0 °F 32.4 °F 33.3 °F 86% 30.19 in 10.0 mi NW 5.8 mph - N/A   Clear
7:15 AM 37.9 °F 34.4 °F 33.8 °F 85% 30.20 in 10.0 mi NW 4.6 mph - N/A   Scattered Clouds
7:35 AM 39.0 °F 35.7 °F 34.5 °F 84% 30.20 in 10.0 mi WNW 4.6 mph - N/A   Mostly Cloudy
7:55 AM 40.1 °F 36.1 °F 35.1 °F 82% 30.20 in 10.0 mi NW 5.8 mph - N/A   Overcast
8:15 AM 41.0 °F 37.1 °F 35.1 °F 79% 30.21 in 10.0 mi NNW 5.8 mph - N/A   Overcast
8:35 AM 42.3 °F 37.3 °F 36.0 °F 78% 30.21 in 10.0 mi North 8.1 mph - N/A   Overcast
8:55 AM 42.8 °F 37.0 °F 35.6 °F 76% 30.22 in 10.0 mi NNE 10.4 mph - N/A   Overcast
9:15 AM 43.3 °F 38.1 °F 34.5 °F 71% 30.22 in 10.0 mi North 9.2 mph - N/A   Overcast
9:35 AM 43.7 °F 38.1 °F 33.6 °F 68% 30.23 in 10.0 mi NNE 10.4 mph - N/A   Overcast
9:55 AM 44.6 °F 40.2 °F 34.7 °F 68% 30.23 in 10.0 mi NE 8.1 mph - N/A   Overcast
10:15 AM 44.6 °F 43.1 °F 32.5 °F 63% 30.23 in 10.0 mi NNE 3.5 mph - N/A   Mostly Cloudy
10:35 AM 45.0 °F 42.6 °F 33.1 °F 63% 30.24 in 10.0 mi NNE 4.6 mph - N/A   Mostly Cloudy
10:55 AM 46.2 °F 43.3 °F 34.2 °F 63% 30.24 in 10.0 mi North 5.8 mph - N/A   Mostly Cloudy
11:15 AM 46.9 °F - 33.8 °F 60% 30.24 in 10.0 mi ENE 4.6 mph - N/A   Mostly Cloudy
11:35 AM 46.0 °F 41.4 °F 34.7 °F 65% 30.24 in 10.0 mi NNW 9.2 mph - N/A   Overcast
11:55 AM 46.4 °F 43.5 °F 34.9 °F 64% 30.23 in 10.0 mi North 5.8 mph - N/A   Overcast
12:15 PM 46.6 °F - 34.5 °F 63% 30.24 in 10.0 mi NNW 4.6 mph - N/A   Overcast
12:35 PM 47.7 °F - 34.0 °F 59% 30.24 in 10.0 mi Calm Calm - N/A   Scattered Clouds
12:55 PM 48.4 °F - 34.7 °F 59% 30.23 in 10.0 mi Calm Calm - N/A   Scattered Clouds
1:15 PM 48.2 °F - 34.5 °F 59% 30.22 in 10.0 mi North 8.1 mph - N/A   Scattered Clouds
1:35 PM 49.5 °F - 35.2 °F 58% 30.22 in 10.0 mi NW 6.9 mph - N/A   Scattered Clouds
1:55 PM 49.8 °F - 36.0 °F 59% 30.21 in 10.0 mi NNE 4.6 mph - N/A   Mostly Cloudy
2:15 PM 50.5 °F - 35.8 °F 57% 30.21 in 10.0 mi Calm Calm - N/A   Mostly Cloudy
2:35 PM 49.5 °F - 36.1 °F 60% 30.20 in 10.0 mi NNE 4.6 mph - N/A   Scattered Clouds
2:55 PM 50.9 °F - 36.5 °F 58% 30.19 in 10.0 mi North 4.6 mph - N/A   Scattered Clouds
3:15 PM 50.7 °F - 35.4 °F 56% 30.19 in 10.0 mi Calm Calm - N/A   Scattered Clouds
3:35 PM 50.7 °F - 37.2 °F 60% 30.18 in 10.0 mi Calm Calm - N/A   Clear
3:55 PM 51.3 °F - 35.6 °F 55% 30.17 in 10.0 mi Calm Calm - N/A   Clear
4:15 PM 52.0 °F - 36.9 °F 56% 30.18 in 10.0 mi NW 4.6 mph - N/A   Scattered Clouds
4:35 PM 52.0 °F - 36.1 °F 55% 30.18 in 10.0 mi Calm Calm - N/A   Mostly Cloudy
4:50 PM 52.3 °F - 37.6 °F 57% 30.17 in 10.0 mi NW 5.8 mph - N/A   Mostly Cloudy
5:15 PM 52.5 °F - 36.0 °F 53% 30.16 in 10.0 mi NNW 3.5 mph - N/A   Scattered Clouds
5:35 PM 52.3 °F - 36.5 °F 55% 30.16 in 10.0 mi WNW 3.5 mph - N/A   Clear
5:55 PM 52.9 °F - 35.1 °F 51% 30.16 in 10.0 mi Calm Calm - N/A   Clear
6:15 PM 52.2 °F - 36.3 °F 55% 30.16 in 10.0 mi NE 6.9 mph - N/A   Clear
6:35 PM 51.8 °F - 37.2 °F 58% 30.15 in 10.0 mi NE 5.8 mph - N/A   Clear
6:55 PM 50.9 °F - 37.9 °F 61% 30.15 in 10.0 mi NE 4.6 mph - N/A   Clear
7:15 PM 49.8 °F - 39.4 °F 67% 30.15 in 10.0 mi NE 5.8 mph - N/A   Clear
7:35 PM 48.2 °F - 40.3 °F 74% 30.15 in 10.0 mi ENE 4.6 mph - N/A   Clear
7:55 PM 47.8 °F - 39.6 °F 73% 30.15 in 10.0 mi ENE 4.6 mph - N/A   Clear
8:15 PM 46.6 °F - 39.7 °F 77% 30.16 in 10.0 mi ENE 3.5 mph - N/A   Clear
8:35 PM 46.8 °F - 40.3 °F 78% 30.16 in 10.0 mi Calm Calm - N/A   Clear
8:55 PM 45.5 °F - 40.1 °F 81% 30.17 in 10.0 mi Calm Calm - N/A   Clear
9:15 PM 45.5 °F - 40.6 °F 83% 30.16 in 10.0 mi Calm Calm - N/A   Clear
9:35 PM 42.8 °F - 40.1 °F 90% 30.16 in 10.0 mi Calm Calm - N/A   Clear
9:55 PM 42.6 °F - 39.6 °F 89% 30.17 in 10.0 mi Calm Calm - N/A   Clear
10:15 PM 42.1 °F - 39.9 °F 92% 30.16 in 10.0 mi Calm Calm - N/A   Clear
10:35 PM 42.3 °F - 40.5 °F 93% 30.16 in 10.0 mi Calm Calm - N/A   Clear
10:55 PM 41.4 °F - 39.9 °F 95% 30.16 in 7.0 mi Calm Calm - N/A   Clear
11:15 PM 40.8 °F - 39.4 °F 95% 30.16 in 10.0 mi Calm Calm - N/A   Clear
11:35 PM 41.4 °F - 40.1 °F 95% 30.15 in 10.0 mi Calm Calm - N/A   Clear
11:55 PM 41.0 °F - 39.7 °F 95% 30.15 in 7.0 mi Calm Calm - N/A   Clear